TimePDT,TemperatureF,Dew PointF,Humidity,Sea Level PressureIn,VisibilityMPH,Wind Direction,Wind SpeedMPH,Gust SpeedMPH,PrecipitationIn,Events,Conditions,WindDirDegrees,DateUTC
12:53 AM,51.1,28.9,43,30.14,10.0,West,10.4,-,N/A,,Clear,260,2013-05-14 07:53:00
1:53 AM,51.1,28.9,43,30.15,10.0,NNW,5.8,28.8,N/A,,Clear,330,2013-05-14 08:53:00
2:53 AM,46.9,32.0,56,30.18,10.0,North,-9999.0,-,N/A,,Clear,0,2013-05-14 09:53:00
3:39 AM,48.2,32.0,54,30.18,10.0,Calm,Calm,-,N/A,,Clear,0,2013-05-14 10:39:00
3:53 AM,48.9,33.1,54,30.17,10.0,Calm,Calm,-,N/A,,Clear,0,2013-05-14 10:53:00
4:53 AM,48.9,33.1,54,30.17,10.0,WNW,3.5,-,N/A,,Clear,290,2013-05-14 11:53:00
5:53 AM,50.0,33.1,52,30.17,10.0,NW,5.8,-,N/A,,Clear,320,2013-05-14 12:53:00
6:53 AM,51.1,33.1,50,30.19,10.0,West,4.6,-,N/A,,Clear,270,2013-05-14 13:53:00
7:53 AM,53.1,32.0,45,30.18,10.0,West,3.5,-,N/A,,Clear,280,2013-05-14 14:53:00
8:53 AM,55.9,30.9,39,30.17,10.0,West,4.6,-,N/A,,Scattered Clouds,260,2013-05-14 15:53:00
9:53 AM,59.0,27.0,29,30.16,10.0,NW,5.8,-,N/A,,Clear,320,2013-05-14 16:53:00
10:53 AM,59.0,25.0,27,30.15,10.0,Calm,Calm,-,N/A,,Clear,0,2013-05-14 17:53:00
11:53 AM,62.1,21.0,21,30.14,10.0,Calm,Calm,-,N/A,,Clear,0,2013-05-14 18:53:00
12:53 PM,64.9,16.0,15,30.11,10.0,Calm,Calm,-,N/A,,Clear,0,2013-05-14 19:53:00
1:53 PM,66.9,19.9,17,30.09,10.0,ESE,5.8,-,N/A,,Clear,110,2013-05-14 20:53:00
2:53 PM,69.1,23.0,18,30.07,10.0,South,4.6,-,N/A,,Clear,170,2013-05-14 21:53:00
3:53 PM,70.0,24.1,18,30.05,10.0,Variable,6.9,-,N/A,,Clear,0,2013-05-14 22:53:00
4:53 PM,72.0,25.0,17,30.04,10.0,Variable,4.6,-,N/A,,Clear,0,2013-05-14 23:53:00
5:53 PM,71.1,26.1,19,30.03,10.0,Calm,Calm,-,N/A,,Clear,0,2013-05-15 00:53:00
6:53 PM,70.0,26.1,19,30.02,10.0,Calm,Calm,-,N/A,,Clear,0,2013-05-15 01:53:00
7:53 PM,68.0,28.9,23,30.03,10.0,Calm,Calm,-,N/A,,Clear,0,2013-05-15 02:53:00
8:53 PM,63.0,30.9,30,30.04,10.0,North,5.8,-,N/A,,Clear,350,2013-05-15 03:53:00
9:53 PM,55.0,33.1,43,30.07,10.0,Calm,Calm,-,N/A,,Clear,0,2013-05-15 04:53:00
10:53 PM,52.0,35.1,53,30.07,10.0,Calm,Calm,-,N/A,,Clear,0,2013-05-15 05:53:00
11:53 PM,55.0,36.0,49,30.07,10.0,NNW,4.6,21.9,N/A,,Clear,340,2013-05-15 06:53:00